Location: Lombard
(41.8800°N, 88.0080°W)
Time: 18:43:19
(UTC-05:00)

Transit 2A - Pass Details

Date: 16 February 2023
Orbit: 591 x 964 km, 66.7° (Epoch: 29 March)

Event Time Altitude Azimuth Distance (km) Brightness Sun altitude
Rises 20:01:28 0° 339° (NNW) 3,490 9.8 -29.4°
Reaches altitude 10° 20:05:59 10° 10° (N) 2,624 8.7 -30.3°
Enters shadow 20:06:19 11° 14° (NNE) 2,592 8.7 -30.3°
Maximum altitude 20:08:07 12° 31° (NNE) 2,522 - -30.6°
Drops below altitude 10° 20:10:17 10° 52° (NE) 2,673 - -31.0°
Sets 20:14:59 0° 82° (E) 3,646 - -31.9°
